Flag for Brunei Weather past 2 weeks in Bandar Seri Begawan, Brunei

Now
88 °F

Partly sunny.


Feels Like: 102 °F
Forecast: 75 / 89 °F
Wind: 10 mph from Northwest

Location: Brunei Airport

Current Time: Feb 27, 2015 at 3:47:54 PM

Latest Report: Feb 27, 2015 at 3:00 PM


Visibility: N/A

Pressure: 29.77 "Hg

Humidity: 75%

Dew point: 79 °F

Location of Bandar Seri BegawanLocation

Historic Weather in Bandar Seri Begawan — Graph

°F

Bandar Seri Begawan temperature yesterday

Maximum temperature yesterday: 88 °F (at 12:30 PM)
Minimum temperature yesterday: 75 °F (at 4:30 AM)
Average temperature yesterday: 81 °F

Past Weeks' High & Low Weather Summary

 TemperatureHumidityPressure
High91 °F (Feb 22, 12:30 PM)100% (Feb 13, 3:00 AM)29.95 "Hg (Feb 13, 3:00 AM)
Low73 °F (Feb 13, 6:00 AM)56% (Feb 22, 12:30 PM)29.77 "Hg (Feb 17, 2:30 AM)
Average81 °F85%29.85 "Hg
* Reported Feb 12 2:00 PM — Feb 27 2:30 PM, Bandar Seri Begawan, Weather by CustomWeather, © 2015

Note: Actual official high and low records may vary slightly from our data, if they occured in-between our weather recording intervals... More about our weather records

Advertising

Bandar Seri Begawan weather history for previous 24 hours

 ConditionsComfort  
Time TempWeatherWind HumidityBarometerVisibility
2:30 PM
Fri, Feb 27
88 °FPartly sunny.9 mph75%29.77 "HgN/A
2:00 PM88 °FBroken clouds.12 mph75%29.77 "HgN/A
1:30 PM88 °FBroken clouds.9 mph70%29.80 "HgN/A
1:00 PM88 °FBroken clouds.7 mph70%29.80 "HgN/A
12:30 PM88 °FBroken clouds.9 mph70%29.83 "HgN/A
11:30 AM84 °FBroken clouds.8 mph84%29.86 "HgN/A
11:00 AM88 °FBroken clouds.3 mph75%29.86 "HgN/A
10:30 AM86 °FBroken clouds.5 mph70%29.86 "HgN/A
10:00 AM86 °FBroken clouds.6 mph75%29.86 "HgN/A
9:30 AM84 °FBroken clouds.3 mph79%29.86 "HgN/A
9:00 AM82 °FPartly sunny.1 mph89%29.86 "HgN/A
8:30 AM82 °FPartly sunny.5 mph89%29.86 "HgN/A
8:00 AM81 °FPartly sunny.2 mph94%29.86 "HgN/A
7:30 AM79 °FPartly sunny.5 mph94%29.86 "HgN/A
7:00 AM77 °FPartly sunny.1 mph100%29.83 "HgN/A
6:30 AM77 °FPassing clouds.1 mph100%29.83 "HgN/A
6:00 AM77 °FPartly cloudy.2 mph100%29.83 "HgN/A
5:30 AM79 °FPartly cloudy.5 mph94%29.83 "HgN/A
5:00 AM79 °FPartly cloudy.1 mph100%29.83 "HgN/A
4:30 AM79 °FPartly cloudy.2 mph94%29.80 "HgN/A
4:00 AM79 °FPartly cloudy.2 mph100%29.80 "HgN/A
3:30 AM79 °FPartly cloudy.3 mph100%29.80 "HgN/A
3:00 AM79 °FPartly cloudy.3 mph100%29.80 "HgN/A
2:30 AM79 °FPartly cloudy.5 mph100%29.80 "HgN/A
2:00 AM81 °FSprinkles. Partly cloudy.3 mph94%29.83 "Hg6 mi
1:30 AM79 °FPartly cloudy.1 mph100%29.83 "Hg6 mi
1:00 AM81 °FThunderstorms. Partly cloudy.3 mph94%29.86 "Hg6 mi
12:30 AM81 °FThunderstorms. Partly cloudy.5 mph94%29.86 "Hg6 mi
12:00 AM81 °FThunderstorms. Partly cloudy.5 mph94%29.86 "HgN/A
11:30 PM
Thu, Feb 26
81 °FThunderstorms. Partly cloudy.3 mph94%29.86 "HgN/A
11:00 PM82 °FThunderstorms. Partly cloudy.2 mph89%29.86 "HgN/A
10:30 PM81 °FPartly cloudy.2 mph89%29.86 "HgN/A
10:00 PM82 °FPartly cloudy.3 mph84%29.86 "HgN/A
9:30 PM82 °FPartly cloudy.6 mph84%29.86 "HgN/A
9:00 PM82 °FPartly cloudy.3 mph84%29.86 "HgN/A
8:30 PM82 °FPartly cloudy.3 mph84%29.86 "HgN/A
8:00 PM82 °FPassing clouds.2 mph84%29.83 "HgN/A
7:30 PM82 °FPassing clouds.3 mph84%29.80 "HgN/A
7:00 PM82 °FSprinkles. Partly cloudy.5 mph84%29.80 "Hg6 mi
6:30 PM82 °FBroken clouds.5 mph84%29.80 "HgN/A
6:00 PM82 °FPartly sunny.6 mph84%29.80 "HgN/A
5:30 PM82 °FPartly sunny.8 mph84%29.77 "HgN/A
5:00 PM84 °FPartly sunny.9 mph79%29.77 "HgN/A
4:30 PM84 °FPartly sunny.8 mph74%29.77 "HgN/A
4:00 PM86 °FPartly sunny.9 mph70%29.77 "HgN/A
3:30 PM86 °FPartly sunny.10 mph70%29.77 "HgN/A
3:00 PM88 °FPartly sunny.9 mph66%29.77 "HgN/A
Weather by CustomWeather, © 2015

See weather overviewHow to use our weather pages